Flag for U.S.A. Weather past 2 weeks in Racine, Wisconsin, U.S.A.

Now
26 °F

Light snow. Ice fog.


Feels Like: 26 °F
Forecast: 20 / 29 °F
Wind: No wind

Location: Batten International Airport

Current Time: Jan 26, 2015 at 11:53:57 PM

Latest Report: Jan 26, 2015 at 10:53 PM


Visibility: 5 mi

Pressure: 29.95 "Hg

Humidity: 88%

Dew point: 23 °F

Location of RacineLocation

Historic Weather in Racine — Graph

°F

Racine temperature yesterday

Maximum temperature yesterday: 33 °F (at 12:53 AM)
Minimum temperature yesterday: 24 °F (at 4:53 PM)
Average temperature yesterday: 27 °F

Past Weeks' High & Low Weather Summary

 TemperatureHumidityPressure
High43 °F (Jan 17, 10:53 AM)93% (Jan 21, 5:53 AM)30.78 "Hg (Jan 21, 5:53 AM)
Low2 °F (Jan 14, 5:53 AM)47% (Jan 18, 1:53 PM)29.55 "Hg (Jan 17, 2:53 PM)
Average28 °F74%30.09 "Hg
* Reported Jan 11 9:53 PM — Jan 26 9:53 PM, Racine, Weather by CustomWeather, © 2014

Note: Actual official high and low records may vary slightly from our data, if they occured in-between our weather recording intervals... More about our weather records

Advertising

Racine weather history for previous 24 hours

 ConditionsComfort  
Time TempWeatherWind HumidityBarometerVisibility
9:53 PM
Jan 26
26 °FLight snow. Ice fog.3 mph84%29.95 "Hg4 mi
8:53 PM26 °FLight snow. Ice fog.5 mph88%29.95 "Hg4 mi
7:53 PM27 °FLight snow. Ice fog.6 mph85%29.94 "Hg2 mi
6:53 PM26 °FLight snow. Ice fog.5 mph84%29.94 "Hg3 mi
5:53 PM26 °FLight snow. Mostly cloudy.5 mph81%29.94 "Hg3 mi
4:53 PM26 °FLight snow. Mostly cloudy.7 mph74%29.92 "Hg7 mi
3:53 PM26 °FOvercast.7 mph74%29.91 "Hg10 mi
2:53 PM26 °FLight snow. More clouds than sun.8 mph77%29.90 "Hg2 mi
1:53 PM27 °FLight snow. Mostly cloudy.8 mph66%29.90 "Hg8 mi
12:53 PM27 °FMore clouds than sun.8 mph66%29.91 "Hg10 mi
11:53 AM27 °FMostly cloudy.8 mph63%29.93 "Hg10 mi
10:53 AM26 °FOvercast.7 mph63%29.95 "Hg10 mi
9:53 AM24 °FOvercast.6 mph68%29.98 "Hg10 mi
8:53 AM22 °FBroken clouds.5 mph72%29.99 "Hg10 mi
7:53 AM17 °FBroken clouds.3 mph80%30.00 "Hg10 mi
6:53 AM17 °FMostly cloudy.3 mph80%29.99 "Hg10 mi
5:53 AM17 °FPassing clouds.No wind80%30.00 "Hg10 mi
4:53 AM18 °FPassing clouds.5 mph77%30.01 "Hg10 mi
3:53 AM19 °FPassing clouds.5 mph77%30.02 "Hg10 mi
2:53 AM22 °FPassing clouds.5 mph72%30.03 "Hg10 mi
1:53 AM24 °FOvercast.6 mph68%30.04 "Hg10 mi
12:53 AM24 °FPassing clouds.6 mph68%30.05 "Hg10 mi
11:53 PM
Jan 25
24 °FClear.8 mph62%30.04 "Hg10 mi
Weather by CustomWeather, © 2014

See weather overviewHow to use our weather pages